Flag for U.S.A. Weather past 2 weeks in Germantown, Maryland, U.S.A.

Now
36 °F

Overcast.


Feels Like: 32 °F
Forecast: 29 / 41 °F
Wind: 5 mph from Northwest

Location: Frederick Municipal Airport

Current Time: Dec 19, 2014 at 4:51:31 AM

Latest Report: Dec 19, 2014 at 4:10 AM


Visibility: 10 mi

Pressure: 30.13 "Hg

Humidity: 60%

Dew point: 23 °F

Location of GermantownLocation

Historic Weather in Germantown — Graph

°F

Germantown temperature yesterday

Maximum temperature yesterday: 39 °F (at 1:45 PM)
Minimum temperature yesterday: 34 °F (at 5:25 AM)
Average temperature yesterday: 36 °F

Past Weeks' High & Low Weather Summary

 TemperatureHumidityPressure
High59 °F (Dec 15, 1:55 PM)93% (Dec 9, 1:20 AM)30.85 "Hg (Dec 9, 1:20 AM)
Low27 °F (Dec 13, 6:50 AM)20% (Dec 11, 9:50 PM)29.83 "Hg (Dec 11, 5:10 AM)
Average39 °F64%30.16 "Hg
* Reported Dec 4 2:10 AM — Dec 19 2:30 AM, Germantown, Weather by CustomWeather, © 2014

Note: Actual official high and low records may vary slightly from our data, if they occured in-between our weather recording intervals... More about our weather records

Advertising

Germantown weather history for previous 24 hours

 ConditionsComfort  
Time TempWeatherWind HumidityBarometerVisibility
2:30 AM
Dec 19
34 °FOvercast.6 mph65%30.14 "Hg10 mi
1:10 AM34 °FOvercast.7 mph60%30.13 "Hg10 mi
12:50 AM34 °FMostly cloudy.7 mph60%30.13 "Hg10 mi
12:30 AM34 °FMostly cloudy.7 mph60%30.13 "Hg10 mi
12:10 AM34 °FMostly cloudy.8 mph65%30.13 "Hg10 mi
11:50 PM
Dec 18
36 °FMostly cloudy.7 mph56%30.14 "Hg10 mi
11:30 PM36 °FOvercast.8 mph56%30.14 "Hg10 mi
11:10 PM36 °FOvercast.8 mph60%30.14 "Hg10 mi
10:30 PM36 °FPartly cloudy.6 mph60%30.14 "Hg10 mi
10:10 PM36 °FOvercast.5 mph60%30.13 "Hg10 mi
9:50 PM36 °FMostly cloudy.6 mph56%30.13 "Hg10 mi
9:10 PM36 °FOvercast.8 mph56%30.14 "Hg10 mi
8:50 PM36 °FOvercast.6 mph60%30.14 "Hg10 mi
8:30 PM36 °FOvercast.6 mph60%30.14 "Hg10 mi
8:10 PM36 °FMostly cloudy.6 mph60%30.14 "Hg10 mi
7:50 PM36 °FOvercast.3 mph56%30.14 "Hg10 mi
6:45 PM36 °FPassing clouds.5 mph56%30.15 "Hg10 mi
5:50 PM36 °FPassing clouds.3 mph56%30.13 "Hg10 mi
4:45 PM37 °FSunny.6 mph48%30.12 "Hg10 mi
3:45 PM37 °FSunny.9 mph48%30.12 "Hg10 mi
2:45 PM39 °FScattered clouds.15 mph45%30.12 "Hg10 mi
1:45 PM39 °FOvercast.15 mph45%30.14 "Hg10 mi
12:45 PM37 °FOvercast.9 mph48%30.16 "Hg10 mi
11:55 AM37 °FMostly cloudy.12 mph48%30.18 "Hg10 mi
10:45 AM37 °FOvercast.5 mph48%30.20 "Hg10 mi
9:45 AM36 °FOvercast.10 mph52%30.20 "Hg10 mi
8:45 AM36 °FOvercast.8 mph52%30.18 "Hg10 mi
7:45 AM36 °FPartly sunny.10 mph48%30.19 "Hg10 mi
6:50 AM34 °FPassing clouds.8 mph51%30.16 "Hg10 mi
5:30 AM34 °FPassing clouds.7 mph51%30.15 "Hg10 mi
5:25 AM34 °FPassing clouds.10 mph51%30.15 "Hg10 mi
5:05 AM36 °FPassing clouds.14 mph48%30.14 "Hg10 mi
4:45 AM36 °FPassing clouds.17 mph48%30.13 "Hg10 mi
4:25 AM36 °FOvercast.15 mph48%30.13 "Hg10 mi
4:05 AM36 °FOvercast.No wind52%30.13 "Hg10 mi
Weather by CustomWeather, © 2014

See weather overviewHow to use our weather pages